Location: Chiroubles
(46.1812°N, 4.6660°E)
Time: 05:50:23
(UTC+00:00)

Transit 4A - Pass Details

Date: 03 December 2020
Orbit: 864 x 980 km, 66.8° (Epoch: 25 January)

Event Time Altitude Azimuth Distance (km) Brightness Sun altitude
Rises 06:40:06 0° 207° (SSW) 3,619 11.0 -4.7°
Reaches altitude 10° 06:42:36 10° 206° (SSW) 2,690 10.4 -4.4°
Maximum altitude 06:48:55 80° 121° (ESE) 994 8.3 -3.4°
Drops below altitude 10° 06:55:21 10° 35° (NE) 2,741 10.4 -2.4°
Sets 06:57:56 0° 35° (NE) 3,691 11.1 -2.0°
